Location: Betz
(49.1556°N, 2.9558°E)
Time: 13:42:54
(UTC+00:00)

Cosmos 2218 Rocket - Pass Details

Date: 18 September 2019
Orbit: 956 x 1006 km, 82.9° (Epoch: 14 October)

Event Time Altitude Azimuth Distance (km) Brightness Sun altitude
Rises 20:26:18 0° 347° (NNW) 3,745 7.7 -24.0°
Reaches altitude 10° 20:28:53 10° 344° (NNW) 2,787 7.0 -24.3°
Maximum altitude 20:35:09 59° 267° (W) 1,142 4.5 -25.1°
Enters shadow 20:39:05 23° 196° (SSW) 1,963 5.4 -25.7°
